Ocoee 3 Observed Data For Previous 48 Hours

Caption
Day and Hour Reservoir Elevation (behind dam)* Tailwater Elevation (below dam)* Average Hourly Discharge*
1/16/2019 2 AM EST 1,429.24 1,121.98 2,263
1/16/2019 3 AM EST 1,429.61 1,121.78 1,384
1/16/2019 4 AM EST 1,429.81 1,120.55 1,731
1/16/2019 5 AM EST 1,429.99 1,120.00 1,818
1/16/2019 6 AM EST 1,430.16 1,119.72 1,823
1/16/2019 7 AM EST 1,430.32 1,120.73 1,819
1/16/2019 8 AM EST 1,430.48 1,120.50 1,826
1/16/2019 9 AM EST 1,430.63 1,120.56 1,824
1/16/2019 10 AM EST 1,430.78 1,120.63 1,824
1/16/2019 11 AM EST 1,430.93 1,120.59 1,827
1/16/2019 12 PM EST 1,431.07 1,120.61 1,823
1/16/2019 1 PM EST 1,431.20 1,120.55 1,822
1/16/2019 2 PM EST 1,431.34 1,120.60 1,813
1/16/2019 3 PM EST 1,431.47 1,120.66 1,813
1/16/2019 4 PM EST 1,431.59 1,120.57 1,811
1/16/2019 5 PM EST 1,431.72 1,120.54 1,815
1/16/2019 6 PM EST 1,431.84 1,120.41 1,814
1/16/2019 7 PM EST 1,431.96 1,120.69 1,818
1/16/2019 8 PM EST 1,432.08 1,120.53 1,817
1/16/2019 9 PM EST 1,432.19 1,120.64 1,825
1/16/2019 10 PM EST 1,432.29 1,120.42 1,823
1/16/2019 11 PM EST 1,432.40 1,120.51 1,829
1/17/2019 12 AM EST 1,432.51 1,120.50 1,831
1/17/2019 1 AM EST 1,432.61 1,120.62 1,833
1/17/2019 2 AM EST 1,432.45 1,120.55 2,744
1/17/2019 3 AM EST 1,432.31 1,122.74 2,792
1/17/2019 4 AM EST 1,432.16 1,122.64 2,786
1/17/2019 5 AM EST 1,432.00 1,122.64 2,786
1/17/2019 6 AM EST 1,431.85 1,122.61 2,775
1/17/2019 7 AM EST 1,431.69 1,122.73 2,778
1/17/2019 8 AM EST 1,431.52 1,122.73 2,775
1/17/2019 9 AM EST 1,431.36 1,122.61 2,776
1/17/2019 10 AM EST 1,431.19 1,122.76 2,765
1/17/2019 11 AM EST 1,431.01 1,122.60 2,765
1/17/2019 12 PM EST 1,430.84 1,122.71 2,762
1/17/2019 1 PM EST 1,430.66 1,122.58 2,764
1/17/2019 2 PM EST 1,430.49 1,122.59 2,752
1/17/2019 3 PM EST 1,430.32 1,122.50 2,752
1/17/2019 4 PM EST 1,430.16 1,122.72 2,748
1/17/2019 5 PM EST 1,429.99 1,122.80 2,751
1/17/2019 6 PM EST 1,429.83 1,122.50 2,741
1/17/2019 7 PM EST 1,429.67 1,122.59 2,739
1/17/2019 8 PM EST 1,429.52 1,122.54 2,736
1/17/2019 9 PM EST 1,429.38 1,122.55 2,738
1/17/2019 10 PM EST 1,429.51 1,122.58 2,136
1/17/2019 11 PM EST 1,429.62 1,121.47 2,210
1/18/2019 12 AM EST 1,429.72 1,121.61 2,209

Elevations are in feet above sea level. Discharges are in cubic feet per second and are reported at the end of the hour.